Precipitable_Water
0.97 0.90 0.89 0.75 0.45 0.44 0.40 0.42 0.58 0.53 0.48 0.45 0.56 0.71 0.70 0.70 0.58 0.47 1.21 1.31 1.30 1.29 1.39 1.46 1.52 1.51 1.48 1.44 1.41 1.37 1.33 1.32 1.40 1.35 1.31 1.29 1.12 1.08 1.08 1.07 1.09 1.11 1.12 1.08 0.99 0.96 0.98 1.02 1.12
0.94 0.92 0.85 0.69 0.46 0.38 0.38 0.43 0.48 0.57 0.58 0.54 0.52 0.68 0.76 0.69 0.95 1.01 1.15 1.32 1.38 1.33 1.38 1.46 1.52 1.48 1.42 1.40 1.34 1.28 1.27 1.34 1.37 1.35 1.32 1.22 1.09 1.07 1.05 1.06 1.09 1.12 1.05 0.98 0.97 1.00 1.02 1.05 1.21
0.88 0.92 0.72 0.62 0.52 0.43 0.39 0.44 0.50 0.57 0.61 0.55 0.57 0.70 0.75 0.80 1.08 1.15 1.31 1.28 1.32 1.37 1.42 1.44 1.47 1.45 1.37 1.37 1.32 1.25 1.24 1.29 1.35 1.36 1.26 1.15 1.07 1.04 1.04 1.07 1.10 1.07 0.99 0.96 0.96 0.96 0.98 1.06 1.17
0.80 0.79 0.75 0.58 0.52 0.55 0.48 0.53 0.54 0.53 0.60 0.59 0.60 0.64 0.79 0.96 1.03 1.30 1.40 1.44 1.27 1.31 1.38 1.45 1.43 1.43 1.37 1.33 1.31 1.24 1.19 1.21 1.29 1.28 1.20 1.12 1.05 1.01 1.04 1.07 1.04 0.99 0.95 0.95 0.94 0.91 0.92 1.00 1.06
0.74 0.71 0.57 0.55 0.55 0.60 0.62 0.61 0.64 0.58 0.57 0.63 0.70 0.70 0.82 1.00 1.37 1.45 1.40 1.46 1.37 1.33 1.36 1.45 1.46 1.48 1.43 1.32 1.28 1.21 1.13 1.15 1.23 1.22 1.15 1.08 1.01 1.03 1.07 1.03 0.99 0.96 0.94 0.93 0.89 0.85 0.83 0.85 0.91
0.51 0.59 0.48 0.46 0.54 0.60 0.65 0.68 0.64 0.62 0.61 0.66 0.67 0.70 0.75 1.11 1.39 1.49 1.52 1.44 1.43 1.30 1.34 1.40 1.44 1.42 1.43 1.38 1.30 1.24 1.11 1.13 1.19 1.18 1.14 1.06 1.02 1.03 1.02 1.00 0.98 0.96 0.93 0.91 0.85 0.82 0.81 0.82 0.86
0.38 0.39 0.36 0.43 0.49 0.54 0.61 0.68 0.64 0.62 0.59 0.62 0.66 0.63 0.73 0.89 1.29 1.56 1.58 1.57 1.47 1.39 1.38 1.43 1.42 1.42 1.43 1.45 1.34 1.21 1.11 1.07 1.12 1.12 1.12 1.07 1.04 1.01 0.99 0.99 0.97 0.95 0.93 0.91 0.87 0.86 0.87 0.87 0.88
0.36 0.38 0.32 0.33 0.34 0.38 0.55 0.60 0.64 0.61 0.58 0.65 0.66 0.60 0.60 0.75 1.06 1.43 1.45 1.45 1.43 1.40 1.43 1.40 1.45 1.43 1.39 1.44 1.39 1.26 1.09 1.10 1.10 1.12 1.12 1.04 1.01 0.99 1.01 1.01 1.00 0.98 0.95 0.93 0.92 0.91 0.91 0.91 0.92
0.34 0.26 0.25 0.28 0.29 0.31 0.38 0.46 0.62 0.64 0.59 0.60 0.63 0.63 0.66 0.77 1.08 1.26 1.30 1.27 1.26 1.30 1.40 1.44 1.39 1.41 1.42 1.42 1.41 1.29 1.15 1.11 1.15 1.21 1.17 1.06 0.97 0.97 1.02 1.03 1.03 0.98 0.95 0.95 0.95 0.94 0.93 0.93 0.94
0.26 0.22 0.23 0.30 0.32 0.31 0.34 0.35 0.38 0.47 0.51 0.53 0.60 0.66 0.68 0.77 0.99 1.06 1.15 1.10 1.08 1.14 1.27 1.39 1.44 1.40 1.39 1.43 1.43 1.35 1.23 1.18 1.17 1.22 1.26 1.13 1.04 1.03 1.04 1.05 1.02 1.02 0.98 0.98 0.97 0.96 0.97 0.97 0.99
0.26 0.20 0.25 0.27 0.28 0.29 0.28 0.29 0.30 0.29 0.34 0.44 0.49 0.59 0.63 0.66 0.76 0.96 1.05 1.13 1.14 1.20 1.28 1.38 1.43 1.43 1.37 1.35 1.39 1.39 1.35 1.29 1.23 1.20 1.23 1.20 1.13 1.12 1.07 1.07 1.07 1.09 1.05 1.00 0.98 0.98 0.98 1.01 1.11
0.22 0.25 0.26 0.25 0.27 0.26 0.24 0.27 0.23 0.25 0.24 0.36 0.46 0.54 0.57 0.59 0.63 0.76 1.00 1.15 1.18 1.20 1.28 1.35 1.45 1.46 1.44 1.42 1.36 1.34 1.26 1.31 1.26 1.23 1.22 1.18 1.14 1.14 1.13 1.09 1.10 1.11 1.09 1.02 1.00 0.97 1.01 1.18 1.28
0.24 0.25 0.27 0.27 0.26 0.25 0.24 0.21 0.20 0.19 0.23 0.25 0.32 0.44 0.51 0.52 0.57 0.64 0.81 1.12 1.24 1.19 1.28 1.41 1.46 1.46 1.46 1.44 1.40 1.34 1.27 1.25 1.25 1.25 1.29 1.25 1.17 1.14 1.18 1.15 1.15 1.11 1.12 1.07 1.03 1.00 1.13 1.27 1.38
0.26 0.26 0.26 0.27 0.27 0.27 0.23 0.22 0.23 0.22 0.24 0.23 0.24 0.31 0.42 0.48 0.52 0.57 0.71 0.86 1.06 1.12 1.28 1.40 1.55 1.58 1.52 1.48 1.43 1.42 1.37 1.29 1.31 1.29 1.27 1.28 1.26 1.20 1.21 1.18 1.15 1.12 1.11 1.10 1.10 1.09 1.15 1.27 1.40
0.25 0.21 0.23 0.24 0.25 0.24 0.25 0.20 0.21 0.26 0.26 0.23 0.23 0.25 0.31 0.44 0.51 0.55 0.63 0.79 0.94 1.01 1.17 1.23 1.32 1.46 1.49 1.57 1.51 1.52 1.54 1.47 1.32 1.33 1.38 1.30 1.25 1.24 1.23 1.20 1.16 1.16 1.15 1.10 1.10 1.15 1.25 1.28 1.35
0.19 0.19 0.15 0.21 0.22 0.22 0.22 0.14 0.22 0.26 0.25 0.25 0.24 0.24 0.26 0.35 0.46 0.57 0.60 0.73 0.93 1.07 1.06 1.17 1.27 1.28 1.35 1.45 1.58 1.62 1.58 1.60 1.52 1.37 1.36 1.38 1.38 1.30 1.22 1.17 1.16 1.17 1.19 1.19 1.13 1.14 1.16 1.22 1.28
0.15 0.11 0.12 0.13 0.18 0.17 0.18 0.15 0.21 0.25 0.24 0.24 0.25 0.25 0.25 0.27 0.37 0.44 0.57 0.67 0.91 1.05 1.08 1.09 1.18 1.21 1.31 1.43 1.58 1.68 1.64 1.66 1.62 1.60 1.28 1.30 1.44 1.43 1.28 1.25 1.22 1.23 1.17 1.12 1.12 1.12 1.15 1.15 1.20
0.11 0.12 0.14 0.14 0.18 0.19 0.16 0.15 0.17 0.21 0.23 0.23 0.24 0.26 0.26 0.26 0.27 0.37 0.45 0.54 0.70 0.92 1.10 1.12 1.15 1.19 1.35 1.40 1.42 1.41 1.39 1.40 1.40 1.43 1.41 1.41 1.44 1.53 1.37 1.33 1.27 1.29 1.19 1.18 1.16 1.16 1.19 1.17 1.16
0.18 0.16 0.16 0.18 0.21 0.19 0.17 0.16 0.18 0.20 0.19 0.20 0.23 0.25 0.25 0.26 0.29 0.32 0.37 0.44 0.52 0.68 0.83 1.05 1.06 1.11 1.20 1.23 1.23 1.24 1.18 1.33 1.38 1.46 1.51 1.49 1.55 1.49 1.47 1.41 1.36 1.33 1.25 1.17 1.17 1.21 1.08 1.23 1.38
0.20 0.18 0.18 0.20 0.23 0.23 0.20 0.18 0.22 0.22 0.20 0.19 0.18 0.20 0.24 0.26 0.28 0.31 0.34 0.38 0.42 0.49 0.59 0.75 0.94 1.09 1.13 1.15 1.19 1.23 1.25 1.31 1.37 1.53 1.52 1.65 1.57 1.40 1.36 1.35 1.32 1.36 1.30 1.22 1.20 1.20 1.23 1.23 1.42
0.22 0.20 0.20 0.19 0.24 0.25 0.21 0.16 0.19 0.21 0.22 0.23 0.22 0.22 0.22 0.23 0.26 0.29 0.32 0.35 0.42 0.44 0.48 0.60 0.74 0.92 1.06 1.13 1.20 1.28 1.31 1.33 1.35 1.40 1.40 1.42 1.48 1.48 1.37 1.33 1.39 1.30 1.27 1.21 1.17 1.17 1.26 1.27 1.47
0.19 0.25 0.25 0.24 0.23 0.16 0.26 0.11 0.16 0.21 0.19 0.21 0.23 0.25 0.26 0.26 0.26 0.27 0.30 0.33 0.34 0.41 0.53 0.54 0.63 0.80 0.97 1.09 1.10 1.12 1.02 0.99 1.06 1.18 1.27 1.26 1.33 1.40 1.50 1.52 1.46 1.47 1.49 1.37 1.28 1.22 1.32 1.48 1.45
0.27 0.33 0.31 0.30 0.25 0.24 0.22 0.16 0.16 0.21 0.19 0.21 0.24 0.27 0.28 0.29 0.30 0.28 0.30 0.32 0.37 0.39 0.44 0.56 0.61 0.73 0.90 0.97 0.99 1.06 1.07 1.11 1.12 1.26 1.24 1.26 1.34 1.42 1.54 1.51 1.57 1.57 1.54 1.53 1.56 1.53 1.52 1.61 1.50
0.39 0.35 0.33 0.31 0.26 0.18 0.20 0.19 0.17 0.20 0.21 0.23 0.26 0.28 0.28 0.29 0.31 0.33 0.35 0.37 0.36 0.39 0.45 0.52 0.64 0.70 0.84 0.91 1.00 1.04 0.98 1.02 1.08 1.09 1.10 1.13 1.23 1.30 1.37 1.47 1.51 1.51 1.55 1.59 1.60 1.65 1.70 1.72 1.66
0.39 0.31 0.21 0.17 0.17 0.14 0.22 0.19 0.17 0.22 0.26 0.27 0.28 0.32 0.36 0.40 0.40 0.39 0.39 0.39 0.39 0.38 0.40 0.49 0.58 0.70 0.87 0.97 1.04 1.05 1.03 1.01 0.99 1.05 1.03 1.06 1.08 1.12 1.17 1.30 1.36 1.49 1.56 1.55 1.48 1.54 1.46 1.46 1.50
0.35 0.32 0.22 0.13 0.11 0.12 0.20 0.14 0.15 0.29 0.41 0.43 0.39 0.42 0.45 0.49 0.49 0.47 0.46 0.46 0.44 0.41 0.41 0.46 0.51 0.64 0.82 0.94 0.99 1.08 1.11 1.09 1.06 1.03 0.98 0.96 0.96 0.99 1.13 1.19 1.23 1.26 1.45 1.48 1.45 1.44 1.44 1.50 1.33
0.35 0.24 0.30 0.20 0.20 0.18 0.19 0.22 0.26 0.40 0.43 0.47 0.48 0.51 0.53 0.54 0.55 0.55 0.55 0.54 0.55 0.52 0.45 0.48 0.52 0.57 0.73 0.85 0.97 0.99 1.01 0.95 0.82 0.79 0.78 0.76 0.81 0.87 0.98 1.10 1.15 1.20 1.27 1.35 1.42 1.45 1.49 1.60 1.64
0.31 0.35 0.22 0.27 0.15 0.13 0.16 0.17 0.20 0.30 0.35 0.46 0.49 0.51 0.54 0.58 0.60 0.60 0.59 0.59 0.58 0.61 0.62 0.56 0.59 0.60 0.66 0.81 0.90 0.88 0.79 0.74 0.71 0.72 0.69 0.71 0.74 0.76 0.79 0.82 0.87 0.94 1.06 1.16 1.26 1.32 1.47 1.51 1.61
0.28 0.26 0.29 0.29 0.26 0.16 0.13 0.13 0.31 0.31 0.36 0.39 0.44 0.55 0.57 0.57 0.59 0.60 0.62 0.62 0.63 0.64 0.67 0.67 0.63 0.66 0.69 0.77 0.80 0.75 0.73 0.72 0.70 0.66 0.65 0.63 0.63 0.60 0.60 0.68 0.72 0.76 0.79 0.89 0.98 1.06 1.18 1.20 1.23
0.30 0.26 0.28 0.22 0.21 0.25 0.22 0.13 0.28 0.30 0.39 0.40 0.43 0.49 0.56 0.60 0.61 0.61 0.61 0.62 0.64 0.67 0.69 0.74 0.73 0.71 0.77 0.81 0.77 0.75 0.72 0.66 0.63 0.60 0.59 0.59 0.53 0.53 0.56 0.60 0.62 0.64 0.68 0.72 0.72 0.73 0.80 0.82 0.80
Wind_Speed
20 18 17 16 16 15 15 15 15 13 13 14 15 15 14 13 12 10 10 15 15 15 14 14 13 12 12 12 12 12 13 14 13 13 12 12 12 13 12 12 12 11 10 10 9 9 9 9 10
21 20 18 17 18 17 15 15 14 13 14 15 16 16 15 14 14 12 9 13 16 16 14 14 14 13 13 13 13 13 13 14 14 13 12 12 13 13 12 12 11 10 9 9 8 8 8 8 8
23 21 21 20 20 20 15 16 14 13 13 13 14 15 15 14 14 14 13 15 17 17 15 15 15 14 13 14 14 13 14 14 14 13 13 13 13 13 12 11 10 9 8 7 7 7 6 6 6
24 23 22 24 24 20 18 16 14 13 13 11 13 15 15 14 15 15 17 17 18 18 17 16 16 16 15 14 14 14 14 14 14 14 13 13 13 13 12 11 10 8 7 6 5 5 5 5 5
26 25 26 26 27 22 20 18 16 15 14 13 12 12 14 13 12 15 18 18 20 19 18 18 18 17 16 15 15 14 14 15 15 14 14 14 14 13 12 11 9 8 7 5 5 4 3 3 3
27 27 28 31 31 25 21 21 19 19 16 15 13 13 13 12 13 15 17 18 20 20 20 20 20 19 18 17 17 16 16 15 16 15 15 15 15 14 12 11 9 8 6 5 4 2 1 1 2
29 28 32 31 30 29 24 22 22 21 19 17 16 16 15 13 15 17 18 18 19 20 20 20 21 21 19 19 19 18 18 18 17 17 17 16 16 15 13 12 10 8 7 6 4 3 1 1 3
27 27 29 29 29 32 25 24 25 24 24 22 20 18 18 17 19 20 19 19 20 20 21 21 22 22 21 21 21 20 20 20 19 18 18 18 17 16 15 13 11 10 8 7 6 4 4 4 4
24 27 29 29 28 26 22 24 28 26 28 27 24 24 21 20 22 24 22 22 22 22 22 23 23 23 23 22 22 22 22 21 21 20 19 19 19 18 16 15 13 12 10 9 7 6 6 6 6
24 26 26 25 24 24 23 25 29 31 32 32 31 28 26 22 23 26 27 26 26 25 25 24 24 25 24 24 23 24 24 24 23 23 22 21 20 19 18 17 15 14 12 10 9 8 8 8 8
21 25 23 23 24 24 24 26 27 31 36 33 33 32 30 29 28 30 30 29 29 28 27 27 26 26 26 26 26 25 26 26 25 25 24 24 22 22 21 19 18 16 14 13 12 11 11 11 10
20 21 23 23 26 28 28 28 31 33 34 34 35 35 34 33 32 32 34 33 31 31 30 30 28 28 28 28 28 28 28 28 27 27 27 26 25 24 23 22 20 19 17 15 14 13 13 12 11
19 19 21 22 23 25 26 28 29 32 31 33 35 37 36 34 34 34 35 34 34 34 33 32 31 30 30 30 30 30 31 31 31 30 30 29 28 27 26 25 23 21 20 18 16 15 14 13 13
17 18 19 20 21 23 24 26 25 25 25 29 31 35 37 36 35 35 36 36 36 35 35 34 34 34 33 33 31 31 32 33 33 33 33 32 30 30 28 27 26 24 23 21 19 18 17 16 16
16 17 19 21 21 22 24 28 26 26 26 29 31 33 35 36 36 35 36 36 37 36 36 36 36 35 35 36 36 36 35 35 35 35 35 35 34 33 32 30 29 27 26 25 23 22 20 19 18
15 16 17 17 19 21 22 30 25 24 24 27 29 31 32 34 35 35 37 37 37 37 38 37 36 35 35 36 35 35 36 35 35 37 38 38 38 36 35 33 32 31 30 28 26 24 23 22 21
14 17 17 19 20 22 23 27 24 27 29 29 30 31 33 34 36 36 35 39 39 38 37 38 38 37 35 34 34 35 35 36 36 37 40 40 41 39 38 36 34 33 31 30 29 27 26 25 25
14 15 16 19 18 22 28 31 29 29 31 31 31 31 33 35 37 37 38 38 40 40 40 39 38 37 35 34 34 34 34 36 36 36 35 40 42 42 41 40 38 37 35 33 33 31 31 28 27
15 16 18 20 21 21 25 28 29 29 30 30 31 32 34 36 37 38 39 40 41 42 42 42 40 38 37 36 35 37 37 36 36 37 38 38 41 42 40 40 41 40 40 38 34 34 34 32 30
14 16 18 19 20 21 26 30 28 28 30 31 32 34 34 35 36 37 39 41 43 44 44 45 44 42 40 39 37 35 36 36 35 35 36 38 38 41 42 41 40 41 41 41 41 39 37 34 34
15 16 18 19 20 22 26 30 26 27 30 32 34 34 33 34 35 36 37 38 42 46 46 47 47 46 44 41 38 37 36 35 36 36 35 36 37 39 40 42 41 42 43 43 42 42 42 39 37
16 16 18 19 21 22 20 31 29 29 32 31 32 32 33 35 36 37 36 36 38 42 45 47 47 48 48 46 43 41 39 37 37 36 35 36 37 38 38 40 40 40 40 42 43 43 42 40 38
16 17 20 22 25 27 26 29 29 26 30 31 32 35 36 36 37 39 38 37 37 39 41 45 47 48 47 46 45 44 43 40 37 36 36 36 37 38 39 37 37 37 39 41 39 38 40 41 41
18 19 23 23 24 26 29 30 26 28 31 32 32 32 31 30 34 36 38 39 39 39 39 40 42 44 46 47 47 46 44 42 40 39 38 37 37 38 38 39 39 39 38 38 38 40 41 42 43
16 19 21 21 19 24 22 29 30 35 33 35 36 34 32 31 32 35 37 38 40 41 42 42 42 41 40 41 42 42 42 41 41 40 39 39 39 38 38 39 39 38 38 38 40 41 43 44 41
17 18 19 25 26 31 30 27 25 29 27 30 30 27 23 22 23 25 30 36 40 43 43 43 43 43 42 40 39 39 39 39 38 37 37 37 37 38 37 38 39 38 38 38 37 37 36 35 31
16 18 17 22 27 27 24 29 31 17 19 18 15 13 17 19 19 21 21 23 30 38 44 45 44 43 42 41 39 38 38 36 36 35 35 35 35 35 36 37 38 39 38 37 36 35 34 33 34
17 15 16 16 18 22 23 29 22 20 20 19 17 16 15 15 18 21 21 22 23 28 37 44 46 44 42 40 39 38 37 36 35 35 35 35 35 36 36 35 35 36 36 36 36 35 34 32 31
15 15 15 17 18 19 22 19 15 20 22 22 21 20 20 20 19 19 20 21 21 21 26 37 43 45 43 41 39 38 37 36 35 34 34 34 34 35 35 34 34 33 32 31 31 31 31 31 31
17 17 17 17 16 17 17 23 20 21 17 21 21 20 21 21 21 20 19 19 18 18 17 23 34 40 41 40 39 38 36 35 34 33 32 31 31 31 32 32 31 31 30 29 28 27 27 28 27
Wind_Direction
238 240 236 231 226 225 223 223 228 233 232 236 244 232 236 240 233 241 251 208 199 190 187 184 183 180 178 175 172 169 166 162 160 158 154 151 147 143 141 137 132 126 121 113 105 98 90 84 78
236 234 231 227 226 223 223 223 219 238 249 250 233 232 236 240 239 239 222 202 194 192 190 191 189 185 181 176 173 169 168 167 165 162 159 156 154 150 146 142 139 133 125 116 109 101 93 86 77
233 232 231 227 226 224 224 216 228 246 244 243 239 236 238 239 236 231 221 203 196 196 195 195 192 189 185 181 177 174 174 172 170 168 165 163 160 157 153 149 146 141 132 124 114 104 94 83 72
231 230 229 228 230 226 224 215 236 245 235 244 244 239 238 237 239 229 210 209 204 203 202 199 195 192 189 187 185 182 180 179 178 175 173 170 167 163 161 158 154 150 143 134 124 114 96 80 64
230 229 230 229 230 229 227 227 236 242 241 247 243 244 236 234 228 214 212 214 210 209 208 204 202 198 198 195 193 191 188 186 184 181 179 177 174 172 170 168 166 162 157 150 141 124 105 77 49
228 229 230 232 231 231 230 231 239 239 241 246 244 241 233 231 225 213 212 213 212 211 210 209 207 205 205 204 202 199 196 194 190 190 187 186 184 182 181 180 178 177 175 172 166 153 129 47 11
228 229 234 236 236 236 235 235 234 235 242 240 246 240 233 230 226 218 214 214 214 213 212 213 211 212 211 210 210 208 205 201 199 196 194 192 192 192 193 193 193 192 192 194 198 206 234 295 325
226 230 234 235 235 241 237 237 237 240 241 243 237 232 234 249 231 222 219 217 215 216 216 215 215 215 215 215 214 213 210 208 206 203 202 201 199 200 202 203 204 204 206 210 218 230 250 277 300
225 230 235 235 235 238 235 240 238 241 243 242 240 241 247 247 231 224 223 222 221 221 220 221 220 220 219 218 217 216 214 212 210 209 209 207 207 208 209 211 211 213 215 220 227 238 255 274 290
226 231 235 237 239 241 243 244 245 244 245 246 246 243 244 240 233 228 225 226 225 224 224 225 225 224 223 223 221 220 218 218 216 215 215 214 214 213 214 216 217 219 222 226 233 244 258 272 285
228 234 235 238 240 244 244 244 244 246 246 246 245 246 247 246 241 235 232 232 231 230 229 227 227 227 227 227 225 225 223 222 221 220 219 218 219 220 219 221 222 225 228 233 240 249 260 269 277
232 235 238 245 245 247 249 250 249 247 249 247 246 248 248 247 245 240 237 235 234 232 231 231 230 230 229 230 230 229 228 226 225 224 222 223 223 223 223 225 226 228 232 237 243 251 260 266 269
235 241 244 248 250 250 250 248 249 251 250 247 245 245 246 246 245 243 240 238 236 235 234 232 232 232 232 232 233 233 232 231 229 228 226 226 226 226 227 228 230 231 235 239 245 251 257 261 264
233 242 249 250 252 250 250 250 247 246 251 247 245 244 245 245 245 246 240 238 237 236 234 234 234 236 235 234 235 235 234 233 231 231 229 228 229 229 229 231 232 234 237 241 246 250 256 259 262
245 252 255 251 254 254 253 251 247 251 252 250 246 246 246 244 246 246 240 239 238 237 235 237 238 238 238 237 238 238 237 236 235 233 232 231 231 232 233 232 235 238 239 243 248 250 256 258 262
249 252 255 255 258 256 250 256 251 254 255 256 252 249 248 245 244 245 244 241 240 239 237 237 237 239 238 239 238 237 236 236 236 236 235 235 233 232 234 236 238 239 241 244 248 250 253 258 262
253 252 254 262 257 259 253 261 257 262 262 257 256 252 251 248 246 246 246 242 241 240 238 239 240 238 238 237 235 235 237 236 238 242 237 239 234 234 235 237 239 240 244 244 248 250 254 258 262
249 256 257 264 261 265 267 266 266 264 261 258 255 254 252 251 249 249 248 246 242 240 241 240 238 237 237 235 235 235 237 241 240 242 243 240 233 237 236 237 240 241 243 247 247 251 256 257 261
256 258 263 265 268 266 266 268 268 266 263 260 256 254 253 253 252 252 250 248 245 242 240 239 238 237 236 236 236 238 240 240 241 241 242 240 237 235 236 237 240 243 245 246 247 252 255 256 259
254 265 267 269 270 266 273 272 271 264 263 261 260 259 257 256 256 255 252 248 245 243 242 240 239 238 238 238 238 239 238 239 239 242 242 240 239 238 235 240 242 243 245 247 249 252 254 258 256
263 264 273 277 281 277 280 275 269 266 265 265 264 263 261 258 257 257 256 252 246 244 243 241 240 240 239 238 238 238 238 240 241 241 241 240 239 238 239 239 245 246 247 249 251 251 251 255 257
271 266 273 277 284 284 289 283 273 275 274 270 267 266 265 261 259 257 256 253 248 244 243 242 240 240 240 239 238 237 238 239 241 242 241 241 239 239 240 242 243 246 247 248 251 253 251 252 254
278 277 278 281 283 286 281 277 284 280 276 275 272 269 267 264 259 256 255 254 249 246 244 241 240 239 238 237 237 237 237 240 241 240 242 242 241 240 241 242 244 247 248 250 251 250 249 249 254
282 281 283 282 283 276 282 275 288 291 287 284 277 270 266 265 262 259 256 253 251 247 244 240 238 238 237 237 236 236 237 238 239 241 242 243 241 241 242 243 245 248 250 250 249 250 253 254 259
278 289 290 282 276 282 293 289 286 294 291 287 282 273 268 270 265 263 260 255 252 248 244 240 237 235 234 233 233 233 235 236 238 240 242 241 242 242 243 244 246 248 249 251 253 255 261 257 263
280 281 281 285 288 290 293 283 291 301 299 296 285 268 267 269 266 267 265 260 254 249 244 240 237 234 232 232 232 232 234 236 237 238 239 240 242 243 244 245 247 248 249 251 253 256 257 255 259
279 278 285 284 284 286 284 287 293 297 308 313 307 287 274 268 265 269 273 270 262 253 244 239 236 233 231 231 232 231 232 233 234 235 237 240 242 244 244 245 246 247 248 249 251 253 254 254 253
281 281 285 285 290 290 293 294 285 295 299 298 303 291 283 283 274 272 275 279 274 263 247 238 235 232 231 230 230 230 230 231 232 235 239 241 244 245 245 244 245 246 247 247 248 250 251 253 254
282 282 284 288 286 292 299 294 293 291 296 292 287 283 279 278 281 280 279 279 277 274 257 238 232 231 229 227 226 226 227 229 233 236 239 243 245 246 244 242 242 242 243 244 244 246 248 251 254
282 280 276 283 286 285 293 290 292 295 295 288 286 281 277 278 274 277 283 282 282 277 274 242 230 228 224 224 224 223 225 226 231 235 239 241 242 241 240 238 237 237 238 239 241 243 246 250 253